Flag for Russia Weather past 2 weeks in Sochi, Russia

Now
82 °F

Passing clouds.


Feels Like: 87 °F
Forecast: 76 / 86 °F
Wind: 15 mph from West

Location: Adler

Current Time: Jul 26, 2014 at 5:54:10 PM

Latest Report: Jul 26, 2014 at 5:00 PM


Visibility: N/A

Pressure: 29.71 "Hg

Humidity: 70%

Dew point: 72 °F

Location of SochiLocation

Historic Weather in Sochi — Graph

°F

Sochi temperature yesterday

Maximum temperature yesterday: 88 °F (at 3:30 PM)
Minimum temperature yesterday: 73 °F (at 3:30 AM)
Average temperature yesterday: 80 °F

Past Weeks' High & Low Weather Summary

 TemperatureHumidityPressure
High97 °F (Jul 12, 1:00 PM)94% (Jul 14, 5:00 AM)29.86 "Hg (Jul 14, 5:00 AM)
Low66 °F (Jul 22, 3:00 AM)27% (Jul 12, 1:30 PM)29.59 "Hg (Jul 24, 7:00 PM)
Average78 °F71%29.74 "Hg
* Reported Jul 11 4:00 PM — Jul 26 4:30 PM, Sochi, Weather by CustomWeather, © 2014

Note: Actual official high and low records may vary slightly from our data, if they occured in-between our weather recording intervals... More about our weather records

Advertising

Sochi weather history for previous 24 hours

 ConditionsComfort  
Time TempWeatherWind HumidityBarometerVisibility
4:30 PM
Jul 26
82 °FPassing clouds.15 mph70%29.74 "HgN/A
4:00 PM84 °FPassing clouds.13 mph66%29.74 "HgN/A
3:30 PM84 °FPassing clouds.10 mph66%29.74 "HgN/A
3:00 PM84 °FPassing clouds.10 mph66%29.74 "HgN/A
2:30 PM84 °FPassing clouds.10 mph66%29.74 "HgN/A
2:00 PM84 °FPassing clouds.8 mph62%29.74 "HgN/A
1:30 PM84 °FPassing clouds.8 mph66%29.74 "HgN/A
1:00 PM84 °FPassing clouds.6 mph62%29.77 "HgN/A
12:30 PM82 °FPassing clouds.6 mph66%29.77 "HgN/A
12:00 PM82 °FPassing clouds.8 mph66%29.77 "HgN/A
11:30 AM82 °FPassing clouds.6 mph66%29.77 "HgN/A
11:00 AM82 °FPassing clouds.6 mph66%29.77 "HgN/A
10:30 AM82 °FPassing clouds.6 mph66%29.77 "HgN/A
10:00 AM84 °FPassing clouds.No wind58%29.77 "HgN/A
9:30 AM81 °FPassing clouds.6 mph62%29.77 "HgN/A
9:00 AM79 °FPassing clouds.8 mph65%29.77 "HgN/A
8:30 AM77 °FPassing clouds.10 mph65%29.77 "HgN/A
8:00 AM75 °FPassing clouds.10 mph69%29.77 "HgN/A
7:30 AM75 °FSunny.6 mph69%29.77 "HgN/A
7:00 AM72 °FClear.8 mph78%29.77 "HgN/A
6:30 AM72 °FClear.8 mph78%29.77 "HgN/A
6:00 AM72 °FClear.6 mph78%29.77 "HgN/A
5:30 AM73 °FPassing clouds.No wind83%29.77 "HgN/A
5:00 AM72 °FPassing clouds.6 mph83%29.77 "HgN/A
4:30 AM72 °FPassing clouds.10 mph83%29.77 "HgN/A
4:00 AM73 °FPassing clouds.8 mph78%29.77 "HgN/A
3:30 AM73 °FPassing clouds.8 mph83%29.77 "HgN/A
3:00 AM73 °FPassing clouds.8 mph83%29.77 "HgN/A
2:30 AM73 °FClear.8 mph83%29.77 "HgN/A
2:00 AM75 °FClear.6 mph78%29.77 "HgN/A
1:30 AM75 °FClear.6 mph78%29.77 "HgN/A
1:00 AM75 °FClear.8 mph78%29.77 "HgN/A
12:30 AM75 °FClear.8 mph78%29.77 "HgN/A
12:00 AM75 °FClear.6 mph78%29.77 "HgN/A
11:30 PM
Jul 25
77 °FClear.6 mph79%29.74 "HgN/A
11:00 PM75 °FClear.8 mph83%29.74 "HgN/A
10:30 PM75 °FClear.8 mph83%29.74 "HgN/A
10:00 PM79 °FClear.1 mph70%29.74 "HgN/A
9:30 PM79 °FSunny.1 mph70%29.71 "HgN/A
9:00 PM81 °FSunny.No wind66%29.71 "HgN/A
8:30 PM81 °FPassing clouds.3 mph66%29.71 "HgN/A
8:00 PM82 °FPassing clouds.6 mph62%29.71 "HgN/A
7:30 PM82 °FScattered clouds.6 mph62%29.71 "HgN/A
7:00 PM84 °FScattered clouds.8 mph51%29.71 "HgN/A
6:30 PM84 °FPassing clouds.6 mph55%29.71 "HgN/A
6:00 PM84 °FPassing clouds.8 mph58%29.71 "HgN/A
5:30 PM84 °FPassing clouds.10 mph62%29.71 "HgN/A
5:00 PM84 °FScattered clouds.8 mph58%29.71 "HgN/A
Weather by CustomWeather, © 2014

See weather overviewHow to use our weather pages